Home   Weather   Sunrise Manor   Past weeks

Flag for USA Past Weather in Sunrise Manor, Nevada, USA — Yesterday and Last 2 Weeks

62 °F

Light rain. Passing clouds.

Feels Like: 62 °F
Forecast: 67 / 84 °F
Wind: 6 mph from Northeast

Location: Nellis Air Force Base

Current Time: Oct 28, 2016 at 8:56:25 AM

Latest Report: Oct 28, 2016 at 7:58 AM

Visibility: 10 mi

Pressure: 29.87 "Hg (27.97 "Hg at 555m altitude)

Humidity: 74%

Dew Point: 53 °F

Location of Sunrise ManorLocation

Past Weather in Sunrise Manor — Graph


Sunrise Manor Temperature Yesterday

Maximum temperature yesterday: 81 °F (at 4:58 PM)
Minimum temperature yesterday: 58 °F (at 6:58 AM)
Average temperature yesterday: 69 °F

High & Low Weather Summary for the Past Weeks

High91 °F (Oct 14, 1:58 PM)100% (Oct 25, 12:58 AM)30.24 "Hg (Oct 25, 12:58 AM)
Low50 °F (Oct 21, 5:58 AM)8% (Oct 14, 1:58 PM)29.61 "Hg (Oct 16, 11:58 PM)
Average72 °F37%29.92 "Hg
* Reported Oct 13 6:58 AM — Oct 28 6:58 AM, Sunrise Manor, Weather by CustomWeather, © 2016

Note: Actual official high and low records may vary slightly from our data, if they occured in-between our weather recording intervals... More about our weather records


Sunrise Manor Weather History for the Previous 24 Hours

Scroll right to see more
Time TempWeatherWind HumidityBarometerVisibility
6:58 AM
Fri, Oct 28
61 °FPartly cloudy.No wind74%29.85 "Hg10 mi
5:58 AM62 °FPassing clouds.No wind74%29.83 "Hg10 mi
4:58 AM65 °FClear.No wind67%29.82 "Hg10 mi
3:58 AM65 °FClear.6 mph65%29.82 "Hg10 mi
2:58 AM67 °FClear.6 mph65%29.84 "Hg10 mi
1:58 AM69 °FPassing clouds.13 mph54%29.83 "Hg10 mi
12:58 AM70 °FPassing clouds.6 mph56%29.85 "Hg10 mi
11:58 PM
Thu, Oct 27
72 °FPassing clouds.9 mph51%29.87 "Hg10 mi
10:58 PM72 °FClear.13 mph52%29.87 "Hg10 mi
9:58 PM71 °FPassing clouds.8 mph55%29.88 "Hg10 mi
8:58 PM71 °FPassing clouds.7 mph54%29.89 "Hg10 mi
7:58 PM73 °FClear.6 mph52%29.90 "Hg10 mi
6:58 PM75 °FClear.8 mph47%29.89 "Hg10 mi
5:58 PM78 °FClear.9 mph41%29.87 "Hg10 mi
4:58 PM81 °FSunny.7 mph32%29.88 "Hg10 mi
3:58 PM80 °FSunny.8 mph35%29.89 "Hg10 mi
2:58 PM79 °FSunny.10 mph39%29.89 "Hg10 mi
1:58 PM78 °FSunny.No wind41%29.93 "Hg10 mi
12:58 PM77 °FSunny.10 mph42%29.95 "Hg10 mi
11:58 AM73 °FSunny.3 mph48%30.00 "Hg10 mi
10:58 AM70 °FSunny.5 mph54%30.01 "Hg10 mi
9:58 AM66 °FSunny.3 mph61%30.04 "Hg10 mi
8:58 AM62 °FSunny.No wind73%30.04 "Hg10 mi
Weather by CustomWeather, © 2016

See weather overviewHow to use our weather pages